Location: Unspecified
(0.0000°N, 0.0000°E)
Time: 14:32:40
(UTC+00:00)

NAPA-2 - Pass Details

Date: 16 February 2026
Orbit: 356 x 361 km, 97.7° (Epoch: 6 March)

Event Time Altitude Azimuth Distance (km) Brightness Sun altitude
Rises 05:27:20 0° 159° (SSE) 2,191 ? -11.4°
Reaches altitude 10° 05:29:20 10° 151° (SSE) 1,339 ? -10.9°
Maximum altitude 05:32:02 41° 79° (E) 530 ? -10.3°
Drops below altitude 10° 05:34:43 10° 6° (N) 1,324 ? -9.6°
Sets 05:36:41 0° 359° (N) 2,163 ? -9.1°
